| time (UTC) | temp F | wind direction | speed MPH | gust MPH | rain 1hr in | rain 24hr in | rain mn in | humidity % | barometer mb |
| 20260504024050 | 47 | 101 | 0.0 | 0.0 | 0.00 | 0.00 | 0.00 | 87 | 1016.8 |
| 20260504023546 | 47 | 101 | 0.0 | 0.0 | 0.00 | 0.00 | 0.00 | 87 | 1016.7 |
| 20260504023042 | 47 | 101 | 0.0 | 0.0 | 0.00 | 0.00 | 0.00 | 86 | 1016.6 |
| 20260504022538 | 47 | 101 | 0.0 | 0.0 | 0.00 | 0.00 | 0.00 | 85 | 1016.8 |
| 20260504022035 | 48 | 101 | 0.0 | 0.0 | 0.00 | 0.00 | 0.00 | 85 | 1016.9 |
| 20260504021532 | 48 | 101 | 0.0 | 0.0 | 0.00 | 0.00 | 0.00 | 84 | 1016.8 |
| 20260504021029 | 48 | 101 | 0.0 | 0.0 | 0.00 | 0.00 | 0.00 | 84 | 1016.9 |
| 20260504020526 | 48 | 102 | 0.0 | 0.0 | 0.00 | 0.00 | 0.00 | 83 | 1016.8 |
| 20260504020023 | 48 | 102 | 0.0 | 0.0 | 0.00 | 0.00 | 0.00 | 82 | 1016.8 |
| 20260504015519 | 48 | 102 | 0.0 | 0.0 | 0.00 | 0.00 | 0.00 | 82 | 1016.8 |
| 20260504015015 | 49 | 102 | 0.0 | 0.0 | 0.00 | 0.00 | 0.00 | 80 | 1017.0 |
| 20260504014511 | 49 | 102 | 0.0 | 0.0 | 0.00 | 0.00 | 0.00 | 78 | 1016.8 |
| 20260504014008 | 49 | 102 | 0.0 | 0.0 | 0.00 | 0.00 | 0.00 | 78 | 1016.8 |
| 20260504013506 | 49 | 102 | 0.0 | 0.0 | 0.00 | 0.00 | 0.00 | 76 | 1016.6 |
| 20260504013003 | 49 | 102 | 0.0 | 0.0 | 0.00 | 0.00 | 0.00 | 75 | 1016.5 |
| 20260504012501 | 50 | 102 | 0.0 | 0.0 | 0.00 | 0.00 | 0.00 | 74 | 1016.7 |
| 20260504011958 | 49 | 105 | 0.0 | 0.0 | 0.00 | 0.00 | 0.00 | 71 | 1016.6 |
| 20260504011454 | 50 | 105 | 0.0 | 0.0 | 0.00 | 0.00 | 0.00 | 71 | 1016.4 |
| 20260504010950 | 50 | 105 | 0.0 | 0.0 | 0.00 | 0.00 | 0.00 | 71 | 1016.3 |
| 20260504010447 | 51 | 105 | 0.0 | 0.0 | 0.00 | 0.00 | 0.00 | 71 | 1016.3 |
| 20260504005942 | 51 | 105 | 0.0 | 0.0 | 0.00 | 0.00 | 0.00 | 69 | 1016.2 |
| 20260504005439 | 51 | 105 | 0.0 | 0.0 | 0.00 | 0.00 | 0.00 | 65 | 1016.2 |
| 20260504004937 | 51 | 105 | 0.0 | 0.0 | 0.00 | 0.00 | 0.00 | 63 | 1016.0 |
| 20260504004434 | 52 | 105 | 0.0 | 0.0 | 0.00 | 0.00 | 0.00 | 62 | 1016.2 |
| 20260504003931 | 52 | 106 | 0.0 | 0.0 | 0.00 | 0.00 | 0.00 | 61 | 1015.9 |
| 20260504003427 | 52 | 106 | 0.0 | 0.0 | 0.00 | 0.00 | 0.00 | 61 | 1016.0 |
| 20260504002924 | 53 | 106 | 0.0 | 0.0 | 0.00 | 0.00 | 0.00 | 61 | 1015.9 |
| 20260504002421 | 53 | 106 | 0.0 | 0.0 | 0.00 | 0.00 | 0.00 | 60 | 1015.7 |
| 20260504001919 | 54 | 106 | 0.0 | 0.0 | 0.00 | 0.00 | 0.00 | 59 | 1015.9 |
| 20260504001416 | 54 | 106 | 0.0 | 0.0 | 0.00 | 0.00 | 0.00 | 58 | 1015.6 |
| 20260504000912 | 55 | 106 | 0.0 | 0.0 | 0.00 | 0.00 | 0.00 | 55 | 1015.7 |
| 20260504000410 | 55 | 106 | 0.0 | 0.0 | 0.00 | 0.00 | 0.00 | 54 | 1015.6 |
| 20260503235907 | 56 | 106 | 0.0 | 0.0 | 0.00 | 0.00 | 0.00 | 52 | 1015.8 |
| 20260503235405 | 57 | 106 | 0.0 | 0.0 | 0.00 | 0.00 | 0.00 | 52 | 1015.6 |
| 20260503234902 | 57 | 106 | 0.0 | 0.0 | 0.00 | 0.00 | 0.00 | 53 | 1015.5 |
| 20260503234359 | 58 | 106 | 0.0 | 0.0 | 0.00 | 0.00 | 0.00 | 51 | 1015.3 |
| 20260503233857 | 58 | 106 | 0.0 | 0.0 | 0.00 | 0.00 | 0.00 | 49 | 1015.6 |
| 20260503233354 | 59 | 94 | 0.0 | 0.0 | 0.00 | 0.00 | 0.00 | 47 | 1015.6 |
| 20260503232850 | 59 | 94 | 0.0 | 0.0 | 0.00 | 0.00 | 0.00 | 44 | 1015.4 |
| 20260503232347 | 60 | 95 | 0.0 | 1.0 | 0.00 | 0.00 | 0.00 | 44 | 1015.3 |
| 20260503231845 | 60 | 110 | 0.0 | 0.0 | 0.00 | 0.00 | 0.00 | 43 | 1015.4 |
| 20260503231342 | 60 | 111 | 1.0 | 1.0 | 0.00 | 0.00 | 0.00 | 41 | 1015.4 |
| 20260503230838 | 61 | 118 | 0.0 | 0.0 | 0.00 | 0.00 | 0.00 | 40 | 1015.3 |
| 20260503230335 | 62 | 92 | 0.0 | 0.0 | 0.00 | 0.00 | 0.00 | 41 | 1015.4 |
| 20260503225833 | 64 | 185 | 1.0 | 1.0 | 0.00 | 0.00 | 0.00 | 38 | 1015.1 |
| 20260503225328 | 64 | 173 | 1.0 | 1.0 | 0.00 | 0.00 | 0.00 | 36 | 1015.2 |
| 20260503224825 | 64 | 91 | 1.0 | 1.0 | 0.00 | 0.00 | 0.00 | 36 | 1015.4 |
| 20260503224322 | 65 | 131 | 0.0 | 1.0 | 0.00 | 0.00 | 0.00 | 36 | 1015.4 |
| 20260503223820 | 65 | 91 | 0.0 | 1.0 | 0.00 | 0.00 | 0.00 | 37 | 1015.4 |
| 20260503223317 | 64 | 82 | 1.0 | 1.0 | 0.00 | 0.00 | 0.00 | 36 | 1015.5 |
| 20260503222813 | 64 | 180 | 1.0 | 1.0 | 0.00 | 0.00 | 0.00 | 36 | 1015.3 |
| 20260503222312 | 64 | 313 | 1.0 | 2.0 | 0.00 | 0.00 | 0.00 | 36 | 1015.5 |
| 20260503221809 | 64 | 146 | 1.0 | 1.0 | 0.00 | 0.00 | 0.00 | 37 | 1015.5 |
| 20260503221308 | 64 | 109 | 1.0 | 1.0 | 0.00 | 0.00 | 0.00 | 36 | 1015.2 |
| 20260503220803 | 65 | 178 | 1.0 | 2.0 | 0.00 | 0.00 | 0.00 | 36 | 1015.4 |
| 20260503220300 | 65 | 153 | 0.0 | 1.0 | 0.00 | 0.00 | 0.00 | 34 | 1015.4 |
| 20260503215757 | 65 | 306 | 2.0 | 3.0 | 0.00 | 0.00 | 0.00 | 35 | 1015.5 |
| 20260503215254 | 66 | 97 | 0.0 | 1.0 | 0.00 | 0.00 | 0.00 | 36 | 1015.4 |
| 20260503214752 | 66 | 36 | 1.0 | 1.0 | 0.00 | 0.00 | 0.00 | 35 | 1015.2 |
| 20260503214249 | 66 | 298 | 2.0 | 2.0 | 0.00 | 0.00 | 0.00 | 33 | 1015.4 |
| 20260503213747 | 66 | 105 | 0.0 | 0.0 | 0.00 | 0.00 | 0.00 | 35 | 1015.4 |
| 20260503213244 | 66 | 2 | 2.0 | 2.0 | 0.00 | 0.00 | 0.00 | 34 | 1015.2 |
| 20260503212740 | 65 | 170 | 1.0 | 1.0 | 0.00 | 0.00 | 0.00 | 34 | 1015.2 |
| 20260503212238 | 65 | 86 | 1.0 | 1.0 | 0.00 | 0.00 | 0.00 | 35 | 1015.4 |
| 20260503211736 | 65 | 95 | 2.0 | 2.0 | 0.00 | 0.00 | 0.00 | 33 | 1015.3 |
| 20260503211232 | 66 | 86 | 0.0 | 1.0 | 0.00 | 0.00 | 0.00 | 35 | 1015.0 |
| 20260503210727 | 65 | 99 | 0.0 | 0.0 | 0.00 | 0.00 | 0.00 | 35 | 1015.3 |
| 20260503210225 | 65 | 150 | 5.0 | 7.0 | 0.00 | 0.00 | 0.00 | 34 | 1015.3 |
| 20260503205720 | 65 | 56 | 1.0 | 1.0 | 0.00 | 0.00 | 0.00 | 34 | 1015.2 |
| 20260503205216 | 65 | 198 | 1.0 | 1.0 | 0.00 | 0.00 | 0.00 | 37 | 1015.2 |
| 20260503204713 | 64 | 222 | 3.0 | 5.0 | 0.00 | 0.00 | 0.00 | 35 | 1015.3 |
| 20260503204211 | 65 | 254 | 3.0 | 3.0 | 0.00 | 0.00 | 0.00 | 33 | 1015.3 |
| 20260503203708 | 65 | 34 | 2.0 | 3.0 | 0.00 | 0.00 | 0.00 | 34 | 1015.2 |
| 20260503203205 | 65 | 288 | 1.0 | 2.0 | 0.00 | 0.00 | 0.00 | 34 | 1015.1 |
| 20260503202702 | 65 | 2 | 4.0 | 5.0 | 0.00 | 0.00 | 0.00 | 34 | 1015.1 |
| 20260503202200 | 65 | 36 | 0.0 | 1.0 | 0.00 | 0.00 | 0.00 | 34 | 1015.0 |
| 20260503201658 | 65 | 153 | 1.0 | 1.0 | 0.00 | 0.00 | 0.00 | 34 | 1015.4 |
| 20260503201155 | 64 | 227 | 3.0 | 3.0 | 0.00 | 0.00 | 0.00 | 35 | 1015.3 |
| 20260503200651 | 64 | 149 | 1.0 | 2.0 | 0.00 | 0.00 | 0.00 | 37 | 1015.4 |
| 20260503200148 | 64 | 64 | 2.0 | 2.0 | 0.00 | 0.00 | 0.00 | 35 | 1015.3 |
| 20260503195645 | 64 | 169 | 3.0 | 5.0 | 0.00 | 0.00 | 0.00 | 35 | 1015.6 |
| 20260503195142 | 63 | 316 | 3.0 | 3.0 | 0.00 | 0.00 | 0.00 | 36 | 1015.8 |
| 20260503194639 | 64 | 225 | 4.0 | 5.0 | 0.00 | 0.00 | 0.00 | 35 | 1015.8 |
| 20260503194134 | 64 | 337 | 3.0 | 3.0 | 0.00 | 0.00 | 0.00 | 35 | 1015.9 |
| 20260503193631 | 66 | 151 | 1.0 | 2.0 | 0.00 | 0.00 | 0.00 | 35 | 1016.0 |
| 20260503193126 | 66 | 77 | 1.0 | 1.0 | 0.00 | 0.00 | 0.00 | 36 | 1015.9 |
| 20260503192622 | 64 | 99 | 1.0 | 2.0 | 0.00 | 0.00 | 0.00 | 37 | 1016.1 |
| 20260503192118 | 64 | 82 | 2.0 | 3.0 | 0.00 | 0.00 | 0.00 | 35 | 1016.1 |
| 20260503191615 | 64 | 82 | 1.0 | 1.0 | 0.00 | 0.00 | 0.00 | 35 | 1015.9 |
| 20260503191112 | 65 | 103 | 1.0 | 2.0 | 0.00 | 0.00 | 0.00 | 35 | 1016.1 |
| 20260503190609 | 63 | 235 | 3.0 | 3.0 | 0.00 | 0.00 | 0.00 | 36 | 1016.3 |
| 20260503190106 | 64 | 159 | 2.0 | 2.0 | 0.00 | 0.00 | 0.00 | 36 | 1016.3 |
| 20260503185603 | 62 | 190 | 3.0 | 5.0 | 0.00 | 0.00 | 0.00 | 37 | 1016.3 |
| 20260503185102 | 63 | 22 | 5.0 | 7.0 | 0.00 | 0.00 | 0.00 | 36 | 1016.2 |
| 20260503184558 | 61 | 235 | 4.0 | 6.0 | 0.00 | 0.00 | 0.00 | 38 | 1016.5 |
| 20260503184055 | 63 | 154 | 1.0 | 1.0 | 0.00 | 0.00 | 0.00 | 36 | 1016.4 |
| 20260503183551 | 62 | 26 | 1.0 | 2.0 | 0.00 | 0.00 | 0.00 | 37 | 1016.4 |
| 20260503183049 | 62 | 314 | 5.0 | 7.0 | 0.00 | 0.00 | 0.00 | 36 | 1016.6 |
| 20260503182547 | 62 | 339 | 3.0 | 3.0 | 0.00 | 0.00 | 0.00 | 36 | 1016.6 |
| 20260503182045 | 62 | 267 | 3.0 | 3.0 | 0.00 | 0.00 | 0.00 | 37 | 1016.5 |
| 20260503181542 | 62 | 84 | 3.0 | 3.0 | 0.00 | 0.00 | 0.00 | 38 | 1016.7 |
| 20260503181038 | 61 | 243 | 3.0 | 6.0 | 0.00 | 0.00 | 0.00 | 39 | 1016.7 |
| 20260503180535 | 63 | 217 | 3.0 | 5.0 | 0.00 | 0.00 | 0.00 | 38 | 1016.5 |
| 20260503180032 | 62 | 265 | 3.0 | 3.0 | 0.00 | 0.00 | 0.00 | 39 | 1016.5 |
| 20260503175530 | 61 | 105 | 2.0 | 2.0 | 0.00 | 0.00 | 0.00 | 42 | 1016.6 |
| 20260503175027 | 60 | 86 | 3.0 | 3.0 | 0.00 | 0.00 | 0.00 | 37 | 1016.6 |
| 20260503174524 | 61 | 122 | 1.0 | 2.0 | 0.00 | 0.00 | 0.00 | 39 | 1016.6 |
| 20260503174020 | 60 | 23 | 3.0 | 3.0 | 0.00 | 0.00 | 0.00 | 38 | 1016.6 |
| 20260503173515 | 61 | 336 | 3.0 | 3.0 | 0.00 | 0.00 | 0.00 | 39 | 1016.8 |
| 20260503173012 | 59 | 46 | 2.0 | 2.0 | 0.00 | 0.00 | 0.00 | 40 | 1017.1 |
| 20260503172510 | 59 | 83 | 2.0 | 2.0 | 0.00 | 0.00 | 0.00 | 40 | 1016.9 |
| 20260503172006 | 60 | 289 | 3.0 | 3.0 | 0.00 | 0.00 | 0.00 | 39 | 1017.2 |
| 20260503171503 | 59 | 105 | 0.0 | 1.0 | 0.00 | 0.00 | 0.00 | 42 | 1016.9 |
| 20260503171001 | 59 | 78 | 3.0 | 3.0 | 0.00 | 0.00 | 0.00 | 40 | 1017.1 |
| 20260503170457 | 60 | 235 | 1.0 | 2.0 | 0.00 | 0.00 | 0.00 | 40 | 1017.0 |
| 20260503150849 | 56 | 259 | 9.0 | 10.0 | 0.00 | 0.00 | 0.00 | 42 | 1017.4 |
| 20260503150345 | 55 | 312 | 7.0 | 8.0 | 0.00 | 0.00 | 0.00 | 42 | 1017.4 |
| 20260503140309 | 53 | 57 | 2.0 | 3.0 | 0.00 | 0.00 | 0.00 | 46 | 1017.2 |
| 20260503131239 | 52 | 81 | 1.0 | 1.0 | 0.00 | 0.00 | 0.00 | 53 | 1017.3 |
| 20260503130737 | 52 | 26 | 3.0 | 3.0 | 0.00 | 0.00 | 0.00 | 52 | 1017.2 |
| 20260503130234 | 52 | 101 | 0.0 | 1.0 | 0.00 | 0.00 | 0.00 | 55 | 1017.3 |
| 20260503120200 | 50 | 86 | 1.0 | 1.0 | 0.00 | 0.00 | 0.00 | 64 | 1016.6 |
| 20260503110627 | 47 | 121 | 1.0 | 1.0 | 0.00 | 0.00 | 0.00 | 66 | 1016.2 |
| 20260503110124 | 47 | 95 | 0.0 | 0.0 | 0.00 | 0.00 | 0.00 | 67 | 1016.1 |
| 20260503081440 | 49 | 106 | 0.0 | 0.0 | 0.00 | 0.00 | 0.00 | 76 | 1013.6 |
| 20260503080937 | 49 | 107 | 0.0 | 0.0 | 0.00 | 0.00 | 0.00 | 76 | 1013.4 |
| 20260503080433 | 49 | 118 | 0.0 | 0.0 | 0.00 | 0.00 | 0.00 | 76 | 1013.4 |
| 20260503072910 | 49 | 89 | 0.0 | 0.0 | 0.00 | 0.00 | 0.00 | 79 | 1013.0 |
| 20260503072407 | 49 | 89 | 0.0 | 1.0 | 0.00 | 0.00 | 0.00 | 79 | 1012.9 |
| 20260503071904 | 49 | 89 | 0.0 | 0.0 | 0.00 | 0.00 | 0.00 | 78 | 1013.0 |
| 20260503071402 | 49 | 89 | 0.0 | 0.0 | 0.00 | 0.00 | 0.00 | 78 | 1012.8 |
| 20260503070857 | 49 | 89 | 0.0 | 0.0 | 0.00 | 0.00 | 0.00 | 77 | 1012.9 |
| 20260503070355 | 49 | 89 | 0.0 | 0.0 | 0.00 | 0.00 | 0.00 | 78 | 1012.7 |
| 20260503060320 | 47 | 89 | 0.0 | 0.0 | 0.00 | 0.00 | 0.00 | 92 | 1012.3 |
| 20260503054808 | 47 | 89 | 0.0 | 0.0 | 0.00 | 0.00 | 0.00 | 91 | 1012.5 |
| 20260503054304 | 47 | 89 | 0.0 | 0.0 | 0.00 | 0.00 | 0.00 | 91 | 1012.4 |
| 20260503053802 | 47 | 89 | 0.0 | 0.0 | 0.00 | 0.00 | 0.00 | 90 | 1012.3 |
| 20260503053301 | 47 | 89 | 0.0 | 0.0 | 0.00 | 0.00 | 0.00 | 90 | 1012.3 |
| 20260503052756 | 47 | 89 | 0.0 | 0.0 | 0.00 | 0.00 | 0.00 | 90 | 1012.2 |
| 20260503052253 | 47 | 89 | 0.0 | 0.0 | 0.00 | 0.00 | 0.00 | 89 | 1012.2 |
| 20260503051748 | 47 | 89 | 0.0 | 0.0 | 0.00 | 0.00 | 0.00 | 89 | 1012.2 |
| 20260503051246 | 47 | 89 | 0.0 | 0.0 | 0.00 | 0.00 | 0.00 | 89 | 1012.4 |
| 20260503050742 | 47 | 89 | 0.0 | 0.0 | 0.00 | 0.00 | 0.00 | 89 | 1012.4 |
| 20260503050239 | 47 | 89 | 0.0 | 0.0 | 0.00 | 0.00 | 0.00 | 89 | 1012.4 |
| 20260503045736 | 46 | 89 | 0.0 | 0.0 | 0.00 | 0.00 | 0.00 | 89 | 1012.5 |
| 20260503045234 | 46 | 89 | 0.0 | 0.0 | 0.00 | 0.00 | 0.00 | 88 | 1012.4 |
| 20260503044730 | 46 | 89 | 0.0 | 0.0 | 0.00 | 0.00 | 0.00 | 88 | 1012.5 |
| 20260503044227 | 46 | 89 | 0.0 | 0.0 | 0.00 | 0.00 | 0.00 | 87 | 1012.6 |
| 20260503043724 | 47 | 89 | 0.0 | 0.0 | 0.00 | 0.00 | 0.00 | 87 | 1012.5 |
| 20260503043222 | 47 | 89 | 0.0 | 0.0 | 0.00 | 0.00 | 0.00 | 86 | 1012.5 |
| 20260503042717 | 47 | 89 | 0.0 | 0.0 | 0.00 | 0.00 | 0.00 | 85 | 1012.7 |
| 20260503042214 | 47 | 89 | 0.0 | 0.0 | 0.00 | 0.00 | 0.00 | 86 | 1012.7 |
| 20260503041710 | 48 | 89 | 0.0 | 0.0 | 0.00 | 0.00 | 0.00 | 85 | 1012.7 |
| 20260503041208 | 48 | 89 | 0.0 | 0.0 | 0.00 | 0.00 | 0.00 | 83 | 1012.4 |
| 20260503040705 | 48 | 89 | 0.0 | 0.0 | 0.00 | 0.00 | 0.00 | 82 | 1012.5 |
| 20260503040203 | 48 | 89 | 0.0 | 0.0 | 0.00 | 0.00 | 0.00 | 81 | 1012.5 |
| 20260503035659 | 48 | 89 | 0.0 | 0.0 | 0.00 | 0.00 | 0.00 | 81 | 1012.5 |
| 20260503035157 | 49 | 89 | 0.0 | 0.0 | 0.00 | 0.00 | 0.00 | 81 | 1012.6 |
| 20260503034654 | 49 | 89 | 0.0 | 0.0 | 0.00 | 0.00 | 0.00 | 80 | 1012.3 |
| 20260503034151 | 49 | 89 | 0.0 | 0.0 | 0.00 | 0.00 | 0.00 | 79 | 1012.3 |
| 20260503033649 | 49 | 89 | 0.0 | 0.0 | 0.00 | 0.00 | 0.00 | 79 | 1012.3 |
| 20260503033146 | 49 | 89 | 0.0 | 0.0 | 0.00 | 0.00 | 0.00 | 79 | 1012.6 |
| 20260503032644 | 50 | 89 | 0.0 | 0.0 | 0.00 | 0.00 | 0.00 | 79 | 1012.5 |
| 20260503032143 | 50 | 89 | 0.0 | 0.0 | 0.00 | 0.00 | 0.00 | 78 | 1012.4 |
| 20260503031639 | 50 | 89 | 0.0 | 0.0 | 0.00 | 0.00 | 0.00 | 77 | 1012.2 |
| 20260503031137 | 50 | 89 | 0.0 | 0.0 | 0.00 | 0.00 | 0.00 | 75 | 1012.3 |
| 20260503030633 | 50 | 89 | 0.0 | 0.0 | 0.00 | 0.00 | 0.00 | 76 | 1012.2 |
| 20260503030130 | 51 | 89 | 0.0 | 0.0 | 0.00 | 0.00 | 0.00 | 76 | 1012.4 |
| 20260503025626 | 51 | 89 | 0.0 | 0.0 | 0.00 | 0.00 | 0.00 | 74 | 1012.4 |
| 20260503025125 | 51 | 89 | 0.0 | 0.0 | 0.00 | 0.00 | 0.00 | 74 | 1012.3 |
| 20260503024621 | 51 | 89 | 0.0 | 0.0 | 0.00 | 0.00 | 0.00 | 74 | 1012.4 |
| 20260503024118 | 51 | 89 | 0.0 | 0.0 | 0.00 | 0.00 | 0.00 | 74 | 1012.2 |